Terminal Aerodrome Forecast
Issued by NWS

Home | Current Version | Previous Version | Text Only | Print | Product List | Glossary On
Versions: 1 2 3 4 5 6 7 8 9 10 11 12 13 14 15 16
623
FTUS42 KTAE 250520
TAFDHN
TAF
KDHN 250520Z 2506/2606 VRB03KT P6SM SCT250
     FM251700 14007KT P6SM SCT040
     FM260200 17004KT P6SM SCT250=

USA.gov is the U.S. government's official web portal to all federal, state and local government web resources and services.